1500404400.83,16791,18.56,74634.8,3.99,3.07,3.07,0,*76
1500404402.09,16792,18.56,74636.3,3.97,3.03,3.03,0,*7B
1500404403.33,16793,18.56,74632.5,3.99,3.03,3.03,0,*74
1500404404.54,16794,18.56,74634.3,3.99,3.03,2.95,0,*7D
1500404405.74,16795,18.56,74630.3,3.97,2.99,2.99,0,*7C
1500404407.0,16796,18.56,74634.0,3.97,3.11,3.11,0,*7F
1500404408.26,16797,18.56,74630.0,3.97,3.23,3.15,0,*7B
1500404409.53,16798,18.56,74634.5,3.97,3.15,3.15,0,*71
1500404410.79,16799,18.56,74634.5,3.97,3.11,3.15,0,*74
1500404412.05,16800,18.56,74634.0,3.97,3.15,3.23,0,*7A
1500404413.3,16801,18.56,74634.3,3.97,3.23,3.23,0,*7E
1500404414.57,16802,18.56,74632.5,3.97,3.15,3.11,0,*79
1500404415.83,16803,18.56,74632.5,3.97,3.03,3.03,0,*7C
1500404417.09,16804,18.56,74632.5,3.97,3.11,3.03,0,*78
1500404418.35,16805,18.56,74634.8,3.97,3.03,3.11,0,*79
1500404419.61,16806,18.56,74632.8,3.97,3.11,3.11,0,*79
1500404420.87,16807,18.56,74630.3,3.97,3.03,3.11,0,*7B
1500404422.12,16808,18.56,74634.5,3.95,3.11,3.11,0,*75
1500404423.37,16809,18.56,74630.0,3.95,3.11,3.03,0,*77
1500404424.63,16810,18.56,74632.0,3.97,3.11,3.03,0,*7D
1500404425.88,16811,18.56,74634.8,3.95,3.11,3.11,0,*7D
1500404427.13,16812,18.56,74632.8,3.95,3.11,3.03,0,*7D
1500404428.39,16813,18.56,74634.0,3.95,3.11,3.03,0,*7C
1500404429.64,16814,18.56,74632.0,3.95,3.11,3.11,0,*78
1500404430.86,16815,18.56,74634.8,3.93,3.11,3.07,0,*78
1500404432.12,16816,18.56,74632.5,3.95,3.11,3.11,0,*7A
1500404433.37,16817,18.56,74634.3,3.95,3.11,3.11,0,*7B
1500404434.62,16818,18.56,74634.0,3.95,3.23,3.15,0,*71
1500404435.87,16819,18.56,74632.5,3.95,3.23,3.23,0,*75
1500404437.11,16820,18.56,74630.0,3.95,3.23,3.23,0,*7F
1500404438.37,16821,18.56,74632.8,3.95,3.23,3.15,0,*7B
1500404439.62,16822,18.56,74632.8,3.95,3.15,3.15,0,*7D
1500404440.88,16823,18.56,74634.3,3.95,3.15,3.11,0,*78
1500404442.14,16824,18.56,74632.0,3.95,3.15,3.15,0,*7B
1500404443.39,16825,18.56,74634.8,3.95,3.15,3.15,0,*7A
1500404444.65,16826,18.56,74632.5,3.95,3.15,3.15,0,*79
1500404445.91,16827,18.56,74632.8,3.95,3.15,3.15,0,*78
1500404447.16,16828,18.56,74632.5,3.95,3.23,3.23,0,*77
1500404448.41,16829,18.56,74632.8,3.95,3.15,3.15,0,*76
1500404449.66,16830,18.56,74630.0,3.95,3.15,3.23,0,*7B
1500404450.91,16831,18.56,74634.8,3.95,3.23,3.23,0,*7F
1500404452.13,16832,18.56,74634.8,3.93,3.19,3.19,0,*7A
1500404453.37,16833,18.56,74634.3,3.95,3.23,3.23,0,*7D
1500404454.62,16834,18.56,74634.0,3.95,3.23,3.23,0,*7A
1500404455.88,16835,18.56,74634.3,3.95,3.15,3.15,0,*7B
1500404457.13,16836,18.56,74630.3,3.97,3.23,3.23,0,*7A
1500404458.38,16837,18.56,74634.8,3.95,3.23,3.23,0,*79
1500404459.63,16838,18.56,74634.3,3.97,3.23,3.23,0,*74
1500404460.89,16839,18.56,74634.8,3.97,3.15,3.23,0,*70
1500404462.16,16840,18.56,74632.5,3.97,3.15,3.15,0,*7B
1500404463.41,16841,18.56,74632.5,3.97,3.23,3.23,0,*7A
1500404464.67,16842,18.56,74634.3,3.97,3.23,3.23,0,*79
1500404465.92,16843,18.56,74632.0,3.95,3.15,3.23,0,*7F
1500404467.18,16844,18.56,74634.8,3.97,3.15,3.23,0,*7A
1500404468.44,16845,18.56,74630.8,3.97,3.23,3.15,0,*7B
1500404469.7,16846,18.56,74632.5,3.97,3.23,3.15,0,*78
1500404470.96,16847,18.56,74632.3,3.97,3.15,3.15,0,*7C
1500404472.23,16848,18.56,74634.8,3.97,3.15,3.15,0,*73
1500404473.49,16849,18.56,74632.5,3.97,3.15,3.23,0,*77
1500404474.74,16850,18.56,74632.5,3.97,3.23,3.23,0,*7A
1500404476.0,16851,18.56,74632.0,3.97,3.23,3.23,0,*7B
1500404477.25,16852,18.56,74634.5,3.95,3.15,3.23,0,*7F
1500404478.5,16853,18.56,74632.0,3.95,3.23,3.23,0,*7B
1500404479.75,16854,18.56,74628.5,3.95,3.15,3.15,0,*7C
1500404481.01,16855,18.56,74632.8,3.95,3.23,3.15,0,*78
1500404482.26,16856,18.56,74634.8,3.95,3.15,3.15,0,*7E
1500404483.53,16857,18.56,74634.5,3.97,3.23,3.15,0,*78
1500404484.78,16858,18.56,74630.5,3.97,3.23,3.23,0,*72
1500404486.03,16859,18.56,74632.3,3.97,3.23,3.23,0,*73
1500404487.3,16860,18.56,74632.5,3.97,3.23,3.15,0,*7C
1500404488.56,16861,18.56,74634.3,3.97,3.15,3.15,0,*78
1500404489.82,16862,18.56,74634.8,3.97,3.15,3.23,0,*7E
1500404491.07,16863,18.56,74632.8,3.97,3.23,3.23,0,*7A
1500404492.34,16864,18.56,74634.5,3.97,3.23,3.15,0,*78
1500404493.59,16865,18.56,74634.0,3.97,3.23,3.23,0,*7C
1500404494.84,16866,18.56,74634.5,3.95,3.23,3.23,0,*7D
1500404496.09,16867,18.56,74636.5,3.95,3.15,3.23,0,*79
1500404497.35,16868,18.56,74634.0,3.95,3.15,3.15,0,*73
1500404498.6,16869,18.56,74630.8,3.97,3.23,3.23,0,*70
1500404499.85,16870,18.56,74634.3,3.95,3.15,3.23,0,*7F
1500404501.1,16871,18.56,74634.0,3.95,3.15,3.23,0,*7E
1500404502.36,16872,18.56,74634.5,3.95,3.11,3.15,0,*7C
1500404503.61,16873,18.56,74632.0,3.95,3.11,3.15,0,*7D
1500404504.86,16874,18.56,74632.3,3.95,3.11,3.15,0,*7A
1500404506.12,16875,18.56,74630.3,3.95,3.23,3.11,0,*7E
1500404507.36,16876,18.56,74632.8,3.95,3.11,3.23,0,*7D
1500404508.61,16877,18.56,74634.8,3.95,3.15,3.23,0,*78
1500404509.86,16878,18.56,74632.0,3.95,3.15,3.23,0,*77
1500404511.11,16879,18.56,74630.0,3.95,3.23,3.23,0,*73
1500404512.36,16880,18.56,74628.5,3.95,3.23,3.23,0,*75
1500404513.6,16881,18.56,74628.5,3.95,3.23,3.23,0,*74
1500404514.85,16882,18.56,74634.0,3.95,3.23,3.23,0,*77
1500404516.1,16883,18.56,74630.5,3.95,3.23,3.23,0,*76
1500404517.35,16884,18.56,74630.8,3.95,3.23,3.15,0,*74
1500404518.61,16885,18.56,74632.8,3.95,3.15,3.15,0,*70
1500404519.86,16886,18.56,74630.8,3.95,3.11,3.03,0,*70
1500404521.11,16887,18.56,74632.8,3.95,3.11,3.11,0,*72
1500404522.37,16888,18.56,74634.8,3.95,3.11,3.03,0,*7E
1500404523.59,16889,18.56,74630.0,3.93,3.11,3.11,0,*7A
1500404524.85,16890,18.56,74628.3,3.95,3.15,3.15,0,*74
1500404526.1,16891,18.56,74630.3,3.95,3.11,3.03,0,*76
1500404527.33,16892,18.56,74634.8,3.93,3.11,3.07,0,*77
1500404528.56,16893,18.56,74634.0,3.93,3.07,3.07,0,*71
1500404529.81,16894,18.56,74628.8,3.95,3.03,3.11,0,*73
1500404531.06,16895,18.56,74634.8,3.95,3.11,3.11,0,*71
1500404532.31,16896,18.56,74634.5,3.95,3.11,3.03,0,*71
1500404533.54,16897,18.56,74632.0,3.93,3.07,3.07,0,*75
1500404534.74,16898,18.56,74632.5,3.93,3.07,2.99,0,*7C
1500404535.99,16899,18.56,74634.0,3.95,3.15,3.11,0,*79
1500404537.22,16900,18.56,74634.5,3.93,3.07,3.07,0,*7A
1500404538.44,16901,18.56,74632.8,3.93,3.19,3.11,0,*73
1500404539.69,16902,18.56,74632.8,3.95,3.03,3.03,0,*7E
1500404540.95,16903,18.56,74632.0,3.95,3.03,3.03,0,*7F
1500404542.2,16904,18.56,74632.5,3.95,3.03,3.03,0,*78
1500404543.37,16905,18.56,74630.3,3.93,2.99,2.95,0,*73
1500404544.54,16906,18.56,74630.0,3.93,2.99,2.99,0,*7C
1500404545.74,16907,18.56,74634.5,3.93,3.07,2.99,0,*7B
1500404547.0,16908,18.56,74634.3,3.95,3.03,3.03,0,*74
1500404548.17,16909,18.56,74634.0,3.93,2.99,2.99,0,*73
1500404549.39,16910,18.56,74634.0,3.95,3.03,2.99,0,*7F
1500404550.59,16911,18.56,74632.3,3.95,2.99,2.91,0,*74
1500404551.84,16912,18.56,74632.0,3.95,3.11,3.03,0,*7C
1500404553.04,16913,18.56,74628.3,3.93,2.99,3.07,0,*7E
1500404554.23,16914,18.56,74632.3,3.93,2.95,3.07,0,*75
1500404555.49,16915,18.56,74634.0,3.95,3.11,3.03,0,*7B
1500404556.69,16916,18.56,74632.8,3.89,3.03,2.91,0,*7C
1500404557.92,16917,18.56,74632.8,3.93,3.07,3.07,0,*7C
1500404559.15,16918,18.56,74630.8,3.93,3.11,3.11,0,*73
1500404560.37,16919,18.56,74634.8,3.93,3.11,3.11,0,*72
1500404561.63,16920,18.56,74634.8,3.95,3.15,3.11,0,*7A
1500404562.83,16921,18.56,74634.3,3.93,3.07,2.99,0,*7F
1500404564.06,16922,18.56,74628.8,3.93,3.07,3.07,0,*7A
1500404565.23,16923,18.56,74628.3,3.93,2.99,2.99,0,*7B
1500404566.4,16924,18.56,74632.8,3.93,2.99,2.99,0,*7C
1500404567.57,16925,18.56,74632.0,3.93,2.95,2.99,0,*71
1500404568.74,16926,18.56,74632.5,3.89,2.95,2.95,0,*75
1500404569.98,16927,18.56,74630.3,3.89,3.03,3.03,0,*74
1500404571.21,16928,18.56,74632.8,3.89,3.03,3.07,0,*7F
1500404572.38,16929,18.56,74632.0,3.89,2.95,2.95,0,*7A
1500404573.62,16930,18.56,74634.3,3.89,3.03,3.03,0,*72
1500404574.85,16931,18.56,74632.5,3.89,3.15,3.07,0,*70
1500404576.11,16932,18.56,74632.0,3.87,3.07,3.07,0,*7E
1500404577.28,16933,18.56,74632.5,3.89,2.95,2.95,0,*71
1500404578.49,16934,18.56,74632.8,3.89,2.95,3.03,0,*78
1500404579.66,16935,18.56,74632.5,3.89,2.95,2.95,0,*77
1500404580.84,16936,18.56,74628.8,3.89,2.91,2.91,0,*74
1500404582.05,16937,18.56,74632.0,3.89,2.91,3.03,0,*7F
1500404583.3,16938,18.56,74632.8,3.87,3.03,3.03,0,*74
1500404584.51,16939,18.56,74634.3,3.89,2.91,3.03,0,*71
1500404585.74,16940,18.56,74628.5,3.89,3.03,3.03,0,*75
1500404586.98,16941,18.56,74632.0,3.89,3.15,3.15,0,*74
1500404588.22,16942,18.56,74634.8,3.89,3.15,3.15,0,*77
1500404589.45,16943,18.56,74630.5,3.89,3.07,3.07,0,*76
1500404590.71,16944,18.56,74634.3,3.87,3.15,3.15,0,*7F
1500404591.95,16945,18.56,74634.3,3.89,3.07,3.15,0,*73
1500404593.18,16946,18.56,74634.0,3.89,3.15,3.15,0,*73
1500404594.42,16947,18.56,74634.8,3.89,3.15,3.15,0,*72
1500404595.65,16948,18.56,74630.8,3.89,3.15,3.07,0,*7E
1500404596.89,16949,18.56,74634.0,3.89,3.03,3.07,0,*78
1500404598.12,16950,18.56,74630.3,3.89,3.15,3.03,0,*73
1500404599.3,16951,18.56,74630.5,3.89,2.95,2.91,0,*71
1500404600.5,16952,18.56,74634.5,3.89,2.91,2.85,0,*73
1500404601.71,16953,18.56,74634.8,3.89,3.03,2.95,0,*79
1500404602.91,16954,18.56,74634.3,3.89,2.95,3.03,0,*7E
1500404604.11,16955,18.56,74636.0,3.89,2.95,3.03,0,*7F
1500404605.34,16956,18.56,74634.3,3.87,3.03,2.95,0,*72
1500404606.52,16957,18.56,74634.0,3.89,2.95,2.95,0,*73
1500404607.72,16958,18.56,74634.5,3.89,3.03,2.95,0,*72
1500404608.92,16959,18.56,74632.5,3.89,2.91,2.85,0,*78
1500404610.18,16960,18.56,74632.8,3.87,3.03,3.03,0,*79
1500404611.41,16961,18.56,74634.3,3.89,3.03,3.03,0,*76
1500404612.61,16962,18.56,74634.0,3.89,2.95,3.03,0,*7B
1500404613.81,16963,18.56,74634.3,3.89,2.95,2.85,0,*75
1500404615.02,16964,18.56,74630.0,3.89,3.03,2.95,0,*7D
1500404616.19,16965,18.56,74634.3,3.89,2.95,2.95,0,*72
1500404617.37,16966,18.56,74632.0,3.89,2.95,2.95,0,*71
1500404618.57,16967,18.56,74632.0,3.87,2.95,2.91,0,*7A
1500404619.77,16968,18.56,74632.8,3.87,2.91,2.91,0,*71
1500404620.96,16969,18.56,74634.3,3.87,2.95,2.91,0,*74
1500404622.16,16970,18.56,74630.3,3.89,2.91,2.85,0,*73
1500404623.36,16971,18.56,74634.3,3.87,2.91,2.95,0,*7D
1500404624.6,16972,18.56,74632.8,3.89,3.03,3.03,0,*74
1500404625.83,16973,18.56,74634.8,3.89,3.03,3.03,0,*75
1500404627.05,16974,18.56,74634.8,3.87,2.95,3.03,0,*72
1500404628.25,16975,18.56,74630.0,3.87,2.91,2.91,0,*7D
1500404629.49,16976,18.56,74636.3,3.89,3.03,3.03,0,*70
1500404630.68,16977,18.56,74634.0,3.87,2.95,2.95,0,*7F
1500404631.88,16978,18.56,74634.8,3.87,2.91,2.91,0,*70
1500404633.12,16979,18.56,74634.5,3.87,2.85,2.85,0,*71
1500404634.32,16980,18.56,74628.8,3.87,2.95,2.95,0,*77
1500404635.52,16981,18.56,74632.3,3.87,2.95,2.91,0,*72
1500404636.72,16982,18.56,74632.5,3.87,2.91,2.91,0,*75
1500404637.91,16983,18.56,74632.8,3.87,2.91,2.91,0,*74
1500404639.11,16984,18.56,74628.8,3.87,2.91,2.91,0,*73
1500404640.34,16985,18.56,74632.3,3.87,2.91,2.85,0,*77
1500404641.53,16986,18.56,74630.3,3.87,2.95,2.95,0,*71
1500404642.76,16987,18.56,74632.0,3.87,3.03,2.95,0,*7E
1500404643.98,16988,18.56,74632.5,3.87,2.95,3.07,0,*75
1500404645.15,16989,18.56,74634.8,3.85,2.99,2.91,0,*74
1500404646.41,16990,18.56,74634.0,3.87,3.07,3.07,0,*76
1500404647.6,16991,18.56,74632.5,3.87,2.95,2.91,0,*73
1500404648.82,16992,18.56,74630.8,3.87,2.85,2.91,0,*71
1500404650.05,16993,18.56,74630.3,3.87,2.91,2.81,0,*74
1500404651.29,16994,18.56,74634.8,3.87,2.85,2.85,0,*72
1500404652.52,16995,18.56,74628.5,3.85,2.81,2.89,0,*79
1500404653.75,16996,18.56,74632.5,3.85,2.89,2.81,0,*7A
1500404654.98,16997,18.56,74628.8,3.85,2.81,2.89,0,*7B
1500404656.21,16998,18.56,74632.8,3.85,2.81,2.89,0,*74
1500404657.44,16999,18.56,74634.3,3.85,2.89,2.89,0,*7D
1500404658.66,17000,18.56,74634.3,3.83,2.89,2.91,0,*7A
1500404659.85,17001,18.56,74634.8,3.87,2.95,2.91,0,*72
1500404661.08,17002,18.56,74630.3,3.85,2.89,2.89,0,*77
1500404662.3,17003,18.56,74634.5,3.85,2.89,2.89,0,*76
1500404663.5,17004,18.56,74632.5,3.83,2.99,2.91,0,*7F
1500404664.68,17005,18.56,74632.0,3.85,2.91,2.91,0,*70
1500404665.85,17006,18.56,74634.3,3.85,2.91,2.91,0,*73
1500404667.08,17007,18.56,74634.0,3.85,2.89,2.89,0,*72
1500404668.25,17008,18.56,74634.8,3.85,2.99,2.99,0,*7D
1500404669.49,17009,18.56,74630.5,3.85,3.03,3.03,0,*7C
1500404670.71,17010,18.56,74634.5,3.83,3.03,2.91,0,*78
1500404671.88,17011,18.56,74630.8,3.85,2.99,2.91,0,*7D
1500404673.06,17012,18.56,74630.5,3.85,2.91,2.91,0,*76
1500404674.23,17013,18.56,74632.3,3.85,2.99,2.99,0,*77
1500404675.41,17014,18.56,74636.3,3.85,2.99,2.91,0,*78
1500404676.58,17015,18.56,74632.5,3.85,2.91,2.91,0,*71
1500404677.78,17016,18.56,74634.8,3.83,2.91,2.99,0,*7C
1500404679.03,17017,18.56,74634.3,3.83,2.89,2.89,0,*75
1500404680.26,17018,18.56,74634.5,3.85,2.81,2.81,0,*7C
1500404681.46,17019,18.56,74630.0,3.83,2.91,2.99,0,*73
1500404682.64,17020,18.56,74634.5,3.85,2.91,2.91,0,*77
1500404683.81,17021,18.56,74634.0,3.85,2.99,2.99,0,*76
1500404684.99,17022,18.56,74632.0,3.85,2.99,2.91,0,*7D
1500404686.16,17023,18.56,74630.5,3.85,2.91,2.91,0,*74
1500404687.36,17024,18.56,74632.8,3.83,2.91,2.99,0,*7D
1500404688.57,17025,18.56,74636.5,3.85,2.91,2.89,0,*7B
1500404689.77,17026,18.56,74632.8,3.83,2.99,2.99,0,*77
1500404690.97,17027,18.56,74632.8,3.83,2.91,2.91,0,*76
1500404692.14,17028,18.56,74634.5,3.85,2.91,2.99,0,*77
1500404693.34,17029,18.56,74634.3,3.83,2.91,2.91,0,*78
1500404694.54,17030,18.56,74634.3,3.85,2.89,2.91,0,*7F
1500404695.74,17031,18.56,74632.8,3.83,2.91,2.99,0,*79
1500404696.91,17032,18.56,74632.5,3.85,2.91,2.91,0,*74
1500404698.11,17033,18.56,74638.3,3.83,2.99,2.91,0,*7B
1500404699.29,17034,18.56,74632.5,3.85,2.91,2.91,0,*72
1500404700.46,17035,18.56,74632.0,3.85,2.99,2.99,0,*73
1500404701.66,17036,18.56,74634.0,3.83,2.99,2.99,0,*76
1500404702.83,17037,18.56,74632.3,3.85,2.99,2.91,0,*79
1500404704.03,17038,18.56,74634.5,3.83,2.91,2.91,0,*78
1500404705.23,17039,18.56,74634.3,3.83,2.99,2.99,0,*79
1500404706.45,17040,18.56,74632.8,3.87,2.95,2.85,0,*72
1500404707.68,17041,18.56,74634.8,3.83,2.99,2.89,0,*77
1500404708.88,17042,18.56,74634.8,3.83,2.99,2.91,0,*7D
1500404710.07,17043,18.56,74632.0,3.83,2.91,2.91,0,*74
1500404711.27,17044,18.56,74634.0,3.83,2.99,2.91,0,*7B
1500404712.47,17045,18.56,74630.5,3.83,2.99,2.91,0,*7A
1500404713.67,17046,18.56,74636.8,3.85,2.91,2.89,0,*7E
1500404714.87,17047,18.56,74634.0,3.83,2.91,2.91,0,*70
1500404716.07,17048,18.56,74634.8,3.83,2.91,2.91,0,*7F
1500404717.3,17049,18.56,74632.5,3.83,2.91,2.89,0,*77
1500404718.55,17050,18.56,74638.0,3.83,2.89,2.89,0,*76
1500404719.78,17051,18.56,74632.3,3.83,2.91,2.89,0,*7E
1500404721.03,17052,18.56,74634.3,3.83,2.89,2.81,0,*7C
1500404722.23,17053,18.56,74634.0,3.83,2.99,2.91,0,*7D
1500404723.43,17054,18.56,74634.3,3.83,2.91,2.91,0,*72
1500404724.62,17055,18.56,74632.3,3.85,2.89,2.91,0,*7C
1500404725.85,17056,18.56,74634.8,3.83,2.81,2.91,0,*71
1500404727.08,17057,18.56,74632.3,3.83,2.99,2.81,0,*78
1500404728.27,17058,18.56,74632.3,3.83,2.99,2.99,0,*7E
1500404729.47,17059,18.56,74632.5,3.83,2.91,2.91,0,*7F
1500404730.7,17060,18.56,74634.3,3.81,2.85,2.89,0,*7B
1500404731.87,17061,18.56,74632.8,3.81,2.95,2.95,0,*76
1500404733.05,17062,18.56,74632.0,3.81,2.95,2.95,0,*75
1500404734.22,17063,18.56,74632.8,3.81,2.95,2.95,0,*74
1500404735.47,17064,18.56,74632.3,3.83,3.03,3.03,0,*71
1500404736.7,17065,18.56,74634.3,3.83,3.03,2.99,0,*72
1500404737.93,17066,18.56,74632.8,3.83,3.03,2.99,0,*71
1500404739.15,17067,18.56,74634.0,3.83,2.99,3.03,0,*70
1500404740.4,17068,18.56,74632.8,3.83,3.03,3.03,0,*7D
1500404741.58,17069,18.56,74634.0,3.81,2.99,2.99,0,*7E
1500404742.75,17070,18.56,74630.5,3.81,2.95,2.95,0,*76
1500404743.93,17071,18.56,74636.0,3.81,2.99,2.95,0,*7B
1500404745.12,17072,18.56,74632.8,3.81,2.89,2.95,0,*79
1500404746.33,17073,18.56,74628.0,3.81,2.95,2.89,0,*78
1500404747.56,17074,18.56,74630.8,3.79,2.91,2.81,0,*74
1500404748.78,17075,18.56,74632.3,3.81,2.89,2.85,0,*7F
1500404750.0,17076,18.56,74630.5,3.81,2.85,2.77,0,*7D
1500404751.23,17077,18.56,74634.5,3.81,2.89,2.89,0,*71
1500404752.45,17078,18.56,74632.8,3.81,2.89,2.77,0,*7F
1500404753.67,17079,18.56,74632.8,3.81,2.85,2.85,0,*7F
1500404754.89,17080,18.56,74632.3,3.81,2.85,2.85,0,*79
1500404756.12,17081,18.56,74634.8,3.81,2.85,2.77,0,*75
1500404757.36,17082,18.56,74634.3,3.79,2.85,2.73,0,*75
1500404758.59,17083,18.56,74630.5,3.81,2.77,2.77,0,*7A
1500404759.81,17084,18.56,74634.5,3.81,2.77,2.77,0,*7D
1500404761.06,17085,18.56,74632.0,3.83,2.81,2.77,0,*77
1500404762.27,17086,18.56,74632.3,3.81,2.65,2.73,0,*78
1500404763.52,17087,18.56,74632.3,3.83,2.77,2.77,0,*7C
1500404764.74,17088,18.56,74632.0,3.81,2.69,2.69,0,*71
1500404765.99,17089,18.56,74634.8,3.79,2.69,2.73,0,*7C
1500404767.23,17090,18.56,74634.8,3.79,2.73,2.69,0,*74
1500404768.47,17091,18.56,74630.0,3.79,2.73,2.69,0,*75
1500404769.7,17092,18.56,74630.8,3.79,2.69,2.61,0,*75
1500404770.95,17093,18.56,74634.5,3.79,2.69,2.69,0,*7C
1500404772.16,17094,18.56,74634.0,3.79,2.61,2.61,0,*7B
1500404773.36,17095,18.56,74632.5,3.79,2.61,2.61,0,*7A
1500404774.57,17096,18.56,74628.3,3.79,2.61,2.61,0,*79
1500404775.78,17097,18.56,74634.0,3.79,2.61,2.61,0,*78
1500404776.98,17098,18.56,74630.5,3.77,2.69,2.61,0,*71
1500404778.19,17099,18.56,74632.3,3.77,2.69,2.61,0,*70
1500404779.41,17100,18.56,74632.0,3.77,2.69,2.69,0,*79
1500404780.59,17101,18.56,74632.0,3.77,2.61,2.61,0,*78
1500404781.84,17102,18.56,74632.3,3.75,2.59,2.59,0,*79
1500404783.07,17103,18.56,74632.5,3.75,2.59,2.65,0,*77
1500404784.3,17104,18.56,74632.0,3.75,2.65,2.59,0,*70
1500404785.52,17105,18.56,74632.0,3.75,2.65,2.59,0,*71
1500404786.75,17106,18.56,74630.5,3.75,2.65,2.59,0,*72
1500404788.0,17107,18.56,74628.0,3.75,2.69,2.59,0,*7F
1500404789.22,17108,18.56,74632.0,3.77,2.73,2.69,0,*7A
1500404790.44,17109,18.56,74630.8,3.75,2.65,2.69,0,*7E
1500404791.66,17110,18.56,74634.5,3.77,2.69,2.69,0,*78
1500404792.91,17111,18.56,74632.0,3.75,2.69,2.69,0,*7B
1500404794.15,17112,18.56,74634.0,3.75,2.69,2.69,0,*78
1500404795.37,17113,18.56,74632.8,3.77,2.73,2.73,0,*7B
1500404796.6,17114,18.56,74632.3,3.75,2.69,2.65,0,*72
1500404797.84,17115,18.56,74632.5,3.75,2.77,2.69,0,*70
1500404799.09,17116,18.56,74634.8,3.75,2.77,2.69,0,*73
1500404800.34,17117,18.56,74628.3,3.75,2.81,2.77,0,*74
1500404801.57,17118,18.56,74632.5,3.75,2.91,2.89,0,*7B
1500404802.74,17119,18.56,74632.3,3.73,2.99,2.99,0,*75
1500404803.92,17120,18.56,74634.5,3.73,2.91,2.91,0,*7F
1500404805.17,17121,18.56,74634.5,3.75,2.89,2.81,0,*70
1500404806.41,17122,18.56,74632.8,3.73,2.81,2.89,0,*75
1500404807.66,17123,18.56,74634.8,3.75,2.81,2.89,0,*72
1500404808.91,17124,18.56,74632.5,3.75,2.77,2.77,0,*7D
1500404810.14,17125,18.56,74632.0,3.73,2.77,2.81,0,*73
1500404811.37,17126,18.56,74630.5,3.73,2.81,2.81,0,*79
1500404812.61,17127,18.56,74634.0,3.73,2.81,2.81,0,*78
1500404813.84,17128,18.56,74632.8,3.73,2.89,2.81,0,*7F
1500404815.09,17129,18.56,74632.5,3.75,2.81,2.81,0,*70
1500404816.34,17130,18.56,74632.5,3.75,2.89,2.81,0,*70
1500404817.55,17131,18.56,74632.8,3.73,2.91,2.89,0,*76
1500404818.78,17132,18.56,74632.3,3.73,2.89,2.89,0,*7C
1500404820.01,17133,18.56,74632.0,3.73,2.81,2.89,0,*75
1500404821.26,17134,18.56,74632.8,3.75,2.89,2.89,0,*7C
1500404822.49,17135,18.56,74634.5,3.73,2.89,2.89,0,*7B
1500404823.69,17136,18.56,74630.5,3.73,2.89,2.91,0,*71
1500404824.87,17137,18.56,74632.0,3.73,2.99,2.91,0,*71
1500404826.05,17138,18.56,74632.0,3.73,2.99,2.91,0,*7E
1500404827.28,17139,18.56,74634.8,3.73,2.89,2.89,0,*77
1500404828.51,17140,18.56,74630.0,3.73,2.81,2.89,0,*71
1500404829.74,17141,18.56,74632.8,3.73,2.89,2.89,0,*78
1500404830.95,17142,18.56,74632.0,3.73,2.91,2.89,0,*72
1500404832.13,17143,18.56,74630.5,3.73,2.99,2.91,0,*72
1500404833.38,17144,18.56,74630.3,3.75,2.89,2.81,0,*73
1500404834.6,17145,18.56,74634.8,3.75,2.89,2.91,0,*73
1500404835.83,17146,18.56,74634.8,3.73,2.81,2.81,0,*7F
1500404837.07,17147,18.56,74632.0,3.73,2.81,2.81,0,*7E
1500404838.3,17148,18.56,74630.0,3.73,2.89,2.81,0,*79
1500404839.53,17149,18.56,74632.3,3.73,2.81,2.89,0,*78
1500404840.76,17150,18.56,74634.5,3.73,2.81,2.77,0,*71
1500404841.98,17151,18.56,74632.0,3.73,2.69,2.69,0,*79
1500404843.23,17152,18.56,74636.3,3.71,2.77,2.77,0,*78
1500404844.48,17153,18.56,74628.8,3.75,2.89,2.89,0,*7D
1500404845.73,17154,18.56,74632.8,3.71,2.85,2.85,0,*7E
1500404846.96,17155,18.56,74634.3,3.73,2.77,2.81,0,*74
1500404848.19,17156,18.56,74634.5,3.71,2.73,2.65,0,*7B
1500404849.37,17157,18.56,74634.3,3.73,2.65,2.65,0,*7F
1500404850.6,17158,18.56,74634.5,3.71,2.73,2.65,0,*75
1500404851.85,17159,18.56,74630.0,3.71,2.77,2.73,0,*77
1500404853.08,17160,18.56,74632.8,3.73,2.89,2.81,0,*73
1500404854.29,17161,18.56,74632.0,3.71,2.61,2.61,0,*78
1500404855.49,17162,18.56,74632.8,3.71,2.65,2.65,0,*7B
1500404856.7,17163,18.56,74630.0,3.71,2.65,2.65,0,*7A
1500404857.95,17164,18.56,74634.8,3.71,2.73,2.73,0,*7D
1500404859.18,17165,18.56,74634.0,3.71,2.65,2.73,0,*7B
1500404860.43,17166,18.56,74632.8,3.71,2.89,2.77,0,*7E
1500404861.68,17167,18.56,74636.3,3.71,2.85,2.89,0,*72
1500404862.93,17168,18.56,74634.8,3.71,2.85,2.85,0,*71
1500404864.16,17169,18.56,74634.0,3.73,2.77,2.77,0,*72
1500404865.39,17170,18.56,74632.0,3.73,2.89,2.89,0,*7A
1500404866.62,17171,18.56,74632.3,3.73,2.89,2.89,0,*7B
1500404867.87,17172,18.56,74632.8,3.71,2.85,2.89,0,*76
1500404869.12,17173,18.56,74632.0,3.71,2.85,2.77,0,*76
1500404870.36,17174,18.56,74632.3,3.71,2.85,2.85,0,*7C
1500404871.56,17175,18.5,74630.0,3.73,2.89,2.91,0,*76
1500404872.79,17176,18.56,74632.5,3.71,2.89,2.95,0,*73
1500404874.04,17177,18.56,74634.3,3.71,2.89,2.89,0,*7F
1500404875.27,17178,18.56,74634.8,3.71,2.95,2.89,0,*7D
1500404876.52,17179,18.56,74632.0,3.71,2.85,2.85,0,*71
1500404877.75,17180,18.56,74632.3,3.73,2.89,2.89,0,*75
1500404878.98,17181,18.56,74636.0,3.73,2.81,2.81,0,*74
1500404880.21,17182,18.56,74632.0,3.73,2.89,2.81,0,*7F
1500404881.46,17183,18.56,74634.5,3.71,2.85,2.85,0,*74
1500404882.7,17184,18.56,74632.8,3.71,2.89,2.85,0,*7F
1500404883.94,17185,18.56,74634.8,3.73,2.81,2.81,0,*70
1500404885.17,17186,18.56,74634.3,3.73,2.89,2.89,0,*73
1500404886.42,17187,18.56,74634.5,3.71,2.77,2.73,0,*74
1500404887.66,17188,18.56,74634.3,3.71,2.73,2.77,0,*7B
1500404888.89,17189,18.56,74636.8,3.71,2.73,2.65,0,*79
1500404890.14,17190,18.56,74634.0,3.71,2.77,2.73,0,*72
1500404891.37,17191,18.56,74634.8,3.71,2.73,2.65,0,*70
1500404892.61,17192,18.56,74632.5,3.71,2.73,2.73,0,*74
1500404893.86,17193,18.56,74632.5,3.71,2.73,2.73,0,*75
1500404895.11,17194,18.56,74636.3,3.71,2.77,2.73,0,*76
1500404896.36,17195,18.56,74632.3,3.71,2.73,2.77,0,*77
1500404897.61,17196,18.56,74638.0,3.71,2.85,2.73,0,*79
1500404898.86,17197,18.56,74634.8,3.71,2.77,2.73,0,*75
1500404900.07,17198,18.56,74632.5,3.67,2.61,2.61,0,*79
1500404901.28,17199,18.56,74632.8,3.65,2.69,2.61,0,*72
1500404902.51,17200,18.56,74638.0,3.65,2.69,2.69,0,*79
1500404903.72,17201,18.56,74632.8,3.65,2.69,2.61,0,*70
1500404904.95,17202,18.56,74632.5,3.67,2.61,2.69,0,*71
1500404906.15,17203,18.56,74632.0,3.65,2.61,2.69,0,*72
1500404907.38,17204,18.56,74632.3,3.67,2.61,2.69,0,*77
1500404908.61,17205,18.56,74638.0,3.65,2.69,2.69,0,*7C
1500404909.83,17206,18.56,74634.0,3.65,2.73,2.69,0,*74
1500404911.06,17207,18.56,74636.0,3.65,2.73,2.69,0,*75
1500404912.28,17208,18.56,74632.3,3.65,2.69,2.69,0,*71
1500404913.52,17209,18.56,74634.5,3.67,2.69,2.61,0,*7A
1500404914.73,17210,18.56,74632.0,3.65,2.69,2.61,0,*70
1500404915.94,17211,18.56,74632.5,3.67,2.61,2.61,0,*7B
1500404917.18,17212,18.56,74634.5,3.65,2.59,2.51,0,*72
1500404918.41,17213,18.56,74632.5,3.65,2.59,2.51,0,*73
1500404919.65,17214,18.56,74634.3,3.65,2.51,2.51,0,*7C
1500404920.86,17215,18.56,74632.8,3.65,2.61,2.59,0,*76
1500404922.09,17216,18.56,74636.8,3.67,2.61,2.59,0,*77
1500404923.33,17217,18.56,74638.8,3.65,2.59,2.59,0,*7F
1500404924.56,17218,18.56,74636.0,3.67,2.61,2.59,0,*79
1500404925.79,17219,18.56,74630.8,3.63,2.55,2.59,0,*7B
1500404927.01,17220,18.56,74634.3,3.63,2.59,2.55,0,*71
1500404928.24,17221,18.56,74634.3,3.61,2.59,2.65,0,*71
1500404929.47,17222,18.56,74636.3,3.63,2.59,2.59,0,*7F
1500404930.68,17223,18.56,74632.8,3.63,2.65,2.59,0,*71
1500404931.9,17224,18.56,74636.8,3.63,2.69,2.69,0,*79
1500404933.08,17225,18.56,74634.5,3.63,2.65,2.65,0,*78
1500404934.29,17226,18.56,74632.5,3.63,2.59,2.65,0,*74
1500404935.5,17227,18.56,74634.8,3.63,2.65,2.59,0,*75